Tracking 18852 objects as of 24-Nov-2017
HD Live streaming from Space Station
objects crossing your sky now

FENGYUN 1C DEB

Track FENGYUN 1C DEB now!
10-day predictions


NORAD ID: 31389
Int'l Code: 1999-025BSV
Perigee: 814.4 km
Apogee: 898.7 km
Inclination: 99.1 °
Period: 101.9 minutes
Semi major axis: 7227 km
RCS: 0.0064 m2 (small)
Launch date: May 10, 1999
Source: People's Republic of China (PRC)
Launch site: Taiyaun Space Center, China (TSC)

Note: This is SATELLITE DEBRIS
aabbcc
Your satellite tracking list
Your tracking list is empty




NASA's NSSDC Master Catalog

Two Line Element Set (TLE):
1 31389U 99025BSV 17327.90873934  .00001597  00000-0  86846-3 0  9999
2 31389  99.0884   6.8210 0058346 316.4949 166.8661 14.12914836547372
Source of the keplerian elements: AFSPC